Home > Time Zones > World Clock > Weather > Germany > Ulm > Past weeks

Flag for Germany Weather past 2 weeks in Ulm, Baden-Württemberg, Germany

Now
57 °F

Refreshingly cool.


Feels Like: 55 °F
Forecast: 36 / 62 °F
Wind: 9 mph from Southeast

Location: Laupheim Airport


UV Index: 0 (Low)

Visibility: 6 mi


Pressure: 29.65 "Hg

Humidity: 55%

Dew point: 41 °F

Location of UlmLocation

Historic Weather in Ulm

°F

Ulm temperature yesterday

Maximum temperature yesterday: 52 °F (at 6:20 PM)
Minimum temperature yesterday: 36 °F (at 12:20 AM)
Average temperature yesterday: 42 °F

Past Weeks' High & Low Weather Summary

 TemperatureHumidityPressure
High68 °F (Apr 7, 2:20 PM)100% (Apr 11, 5:20 AM)30.33 "Hg (Apr 11, 5:20 AM)
Low28 °F (Apr 16, 6:20 AM)23% (Apr 17, 6:20 PM)29.65 "Hg (Apr 20, 5:20 PM)
Average48 °F68%30.06 "Hg
* Reported Apr 5 5:20 PM — Apr 20 5:20 PM, Ulm, Weather by CustomWeather, © 2014

Note: Actual official high and low records may vary slightly from our data, if they occured in-between our weather recording intervals... More about our weather records

Advertising

Historic Weather Conditions — Data for Previous 24 hours

 ConditionsComfort  
Time TempWeatherWind HumidityBarometerVisibility
5:20 PM
Apr 20
59 °FRefreshingly cool.12 mph55%29.65 "HgN/A
4:20 PM59 °FRefreshingly cool.13 mph51%29.68 "HgN/A
3:20 PM59 °FRefreshingly cool.14 mph51%29.68 "Hg6 mi
2:20 PM57 °FRefreshingly cool.12 mph59%29.68 "HgN/A
1:20 PM59 °FRefreshingly cool.9 mph55%29.68 "HgN/A
12:20 PM55 °FCool.6 mph67%29.71 "Hg5 mi
11:20 AM50 °FCool.8 mph88%29.71 "Hg4 mi
10:20 AM46 °FCool.3 mph93%29.71 "Hg2 mi
9:20 AM43 °FQuite cool.3 mph100%29.71 "Hg2 mi
8:20 AM41 °FQuite cool.2 mph100%29.71 "Hg1 mi
7:20 AM37 °FChilly.5 mph100%29.71 "Hg0 mi
6:20 AM39 °FChilly.3 mph93%29.68 "Hg1 mi
5:20 AM43 °FQuite cool.6 mph100%29.68 "Hg2 mi
4:20 AM43 °FQuite cool.3 mph100%29.71 "Hg0 mi
3:20 AM43 °FQuite cool.6 mph100%29.71 "Hg2 mi
2:20 AM39 °FChilly.7 mph100%29.74 "Hg1 mi
1:20 AM43 °FQuite cool.3 mph100%29.74 "Hg1 mi
12:20 AM43 °FQuite cool.2 mph100%29.77 "Hg2 mi
11:20 PM
Apr 19
45 °FQuite cool.3 mph100%29.77 "Hg1 mi
10:20 PM45 °FQuite cool.5 mph93%29.77 "Hg0 mi
9:20 PM46 °FCool.1 mph93%29.77 "Hg2 mi
8:20 PM46 °FCool.2 mph93%29.77 "Hg3 mi
7:20 PM50 °FCool.3 mph82%29.77 "Hg3 mi
Weather by CustomWeather, © 2014

See weather overview